Middlesboro, KY

4:25 AM CDT on August 18, 2017 (GMT -0500)
Middlesboro

Weather History for K1A6 - August, 2014

Change the Weather History Date:

Saturday, August 16, 2014

  Actual Average (KLOZ) Record (KLOZ)
Temperature  
Mean Temperature 68 °F -  
Max Temperature 81 °F 85 °F 102 °F (2007)
Min Temperature 55 °F 65 °F 47 °F (1963)
Cooling Degree Days 3    
Growing Degree Days 18 (Base 50)    
Moisture  
Dew Point 61 °F    
Average Humidity 79    
Maximum Humidity 100    
Minimum Humidity 52    
Precipitation  
Precipitation 0.00 in - - ()
Sea Level Pressure  
Sea Level Pressure 30.08 in    
Wind  
Wind Speed 1 mph (South)    
Max Wind Speed 5 mph    
Max Gust Speed -    
Visibility 9 miles    
Events Fog    
Averages and records for this station are not official NWS values.
T = Trace of Precipitation, MM = Missing Value Source: NWS Daily Summary

Daily Weather History Graph

Daily Weather History Graph

Search for Another Location

Airport or City:

Trip Planner

Search our weather history database for the weather conditions in past years. The results will help you decide how hot, cold, wet, or windy it might be!

Date:

Astronomy

Aug. 16, 2014 Rise Set
Actual Time 5:53 AM CDT 7:24 PM CDT
Civil Twilight 5:25 AM CDT 7:51 PM CDT
Nautical Twilight 4:52 AM CDT 8:24 PM CDT
Astronomical Twilight 4:18 AM CDT 8:59 PM CDT
Moon 11:19 PM CDT (8/16) 12:26 PM CDT (8/16)
Length of Visible Light 14h 26m
Length of Day
13h 31m
Waning Gibbous, 58% of the Moon is Illuminated
Aug 16
Waning Gibbous
Aug 17
Last Quarter
Aug 25
New
Sep 2
First Quarter
Sep 8
Full

Hourly Weather History & Observations

Time (CDT) Temp. Heat Index Dew Point Humidity Pressure Visibility Wind Dir Wind Speed Gust Speed Precip Events Conditions
12:15 AM 59.0 °F - 56.8 °F 93% 30.07 in 10.0 mi Calm Calm - N/A   Clear
12:35 AM 58.5 °F - 56.5 °F 93% 30.07 in 10.0 mi Calm Calm - N/A   Clear
12:55 AM 58.1 °F - 56.5 °F 94% 30.07 in 10.0 mi Calm Calm - N/A   Clear
1:15 AM 57.2 °F - 56.3 °F 97% 30.07 in 10.0 mi Calm Calm - N/A   Clear
1:35 AM 57.0 °F - 55.6 °F 95% 30.07 in 10.0 mi Calm Calm - N/A   Clear
1:55 AM 56.7 °F - 55.8 °F 97% 30.07 in 10.0 mi Calm Calm - N/A   Clear
2:15 AM 56.3 °F - 55.4 °F 97% 30.07 in 10.0 mi Calm Calm - N/A   Clear
2:35 AM 56.3 °F - 55.6 °F 97% 30.07 in 10.0 mi Calm Calm - N/A   Clear
2:55 AM 55.6 °F - 54.5 °F 96% 30.07 in 10.0 mi Calm Calm - N/A   Scattered Clouds
3:15 AM 55.8 °F - 55.6 °F 99% 30.07 in 1.2 mi Calm Calm - N/A   Overcast
3:35 AM 55.9 °F - 55.9 °F 100% 30.07 in 0.8 mi Calm Calm - N/A   Overcast
3:55 AM 55.6 °F - 55.6 °F 100% 30.07 in 1.5 mi Calm Calm - N/A   Overcast
4:15 AM 56.1 °F - 56.1 °F 100% 30.07 in 4.0 mi Calm Calm - N/A   Overcast
4:35 AM 55.9 °F - 55.9 °F 100% 30.07 in 0.5 mi Calm Calm - N/A Fog Fog
4:55 AM 56.3 °F - 56.3 °F 100% 30.07 in 0.5 mi Calm Calm - N/A Fog Fog
5:15 AM 56.1 °F - 56.1 °F 100% 30.07 in 1.0 mi Calm Calm - N/A   Overcast
5:35 AM 55.8 °F - 55.8 °F 100% 30.07 in 5.0 mi Calm Calm - N/A   Overcast
5:55 AM 55.9 °F - 55.9 °F 100% 30.08 in 4.0 mi Calm Calm - N/A   Overcast
6:15 AM 56.3 °F - 55.8 °F 98% 30.09 in 10.0 mi Calm Calm - N/A   Mostly Cloudy
6:35 AM 56.7 °F - 55.8 °F 97% 30.09 in 10.0 mi Calm Calm - N/A   Scattered Clouds
6:55 AM 57.2 °F - 56.5 °F 97% 30.10 in 10.0 mi Calm Calm - N/A   Mostly Cloudy
7:15 AM 57.9 °F - 56.5 °F 95% 30.10 in 10.0 mi Calm Calm - N/A   Mostly Cloudy
7:35 AM 58.1 °F - 56.8 °F 96% 30.11 in 10.0 mi Calm Calm - N/A   Scattered Clouds
7:55 AM 59.9 °F - 57.6 °F 92% 30.11 in 10.0 mi Calm Calm - N/A   Scattered Clouds
8:15 AM 61.0 °F - 57.9 °F 90% 30.11 in 10.0 mi Calm Calm - N/A   Scattered Clouds
8:35 AM 63.0 °F - 58.3 °F 85% 30.11 in 10.0 mi Calm Calm - N/A   Clear
8:55 AM 66.0 °F - 59.0 °F 78% 30.10 in 10.0 mi Calm Calm - N/A   Clear
9:15 AM 67.3 °F - 58.6 °F 74% 30.10 in 10.0 mi Calm Calm - N/A   Clear
9:35 AM 69.3 °F - 58.8 °F 69% 30.10 in 10.0 mi Calm Calm - N/A   Clear
9:55 AM 71.1 °F - 60.6 °F 69% 30.10 in 10.0 mi Calm Calm - N/A   Clear
10:15 AM 73.4 °F - 61.2 °F 65% 30.10 in 10.0 mi Calm Calm - N/A   Clear
10:35 AM 76.5 °F - 59.2 °F 55% 30.10 in 10.0 mi Calm Calm - N/A   Mostly Cloudy
10:55 AM 76.3 °F - 57.4 °F 52% 30.10 in 10.0 mi SSE 3.5 mph - N/A   Scattered Clouds
11:15 AM 75.9 °F - 58.6 °F 55% 30.10 in 10.0 mi SSE 3.5 mph - N/A   Mostly Cloudy
11:35 AM 75.7 °F - 59.9 °F 58% 30.10 in 10.0 mi SSE 3.5 mph - N/A   Overcast
11:55 AM 76.1 °F - 60.1 °F 57% 30.10 in 10.0 mi South 3.5 mph - N/A   Overcast
12:15 PM 76.8 °F - 60.3 °F 56% 30.10 in 10.0 mi South 3.5 mph - N/A   Overcast
12:35 PM 77.7 °F - 60.4 °F 55% 30.10 in 10.0 mi SSE 3.5 mph - N/A   Mostly Cloudy
12:55 PM 78.6 °F - 60.8 °F 54% 30.09 in 10.0 mi SE 3.5 mph - N/A   Clear
1:15 PM 80.1 °F 81.2 °F 62.1 °F 54% 30.09 in 10.0 mi Calm Calm - N/A   Clear
1:35 PM 79.2 °F - 62.4 °F 56% 30.09 in 10.0 mi South 4.6 mph - N/A   Clear
1:55 PM 80.4 °F 81.7 °F 63.1 °F 55% 30.08 in 10.0 mi ENE 4.6 mph - N/A   Clear
2:15 PM 80.4 °F 81.7 °F 62.8 °F 55% 30.08 in 10.0 mi SE 3.5 mph - N/A   Scattered Clouds
2:35 PM 79.9 °F - 62.8 °F 56% 30.07 in 10.0 mi SSE 3.5 mph - N/A   Scattered Clouds
2:55 PM 80.2 °F 81.5 °F 62.8 °F 55% 30.07 in 10.0 mi South 3.5 mph - N/A   Clear
3:15 PM 80.8 °F 82.0 °F 62.6 °F 54% 30.06 in 10.0 mi SSW 4.6 mph - N/A   Clear
3:35 PM 80.4 °F 81.6 °F 62.2 °F 54% 30.06 in 10.0 mi South 4.6 mph - N/A   Clear
3:55 PM 81.7 °F 83.0 °F 63.3 °F 54% 30.06 in 10.0 mi South 4.6 mph - N/A   Clear
4:15 PM 81.1 °F 82.3 °F 62.6 °F 53% 30.05 in 10.0 mi SSW 4.6 mph - N/A   Clear
4:35 PM 81.3 °F 82.3 °F 62.4 °F 52% 30.05 in 10.0 mi SSW 3.5 mph - N/A   Clear
4:55 PM 81.0 °F 82.2 °F 62.8 °F 54% 30.05 in 10.0 mi South 4.6 mph - N/A   Clear
5:15 PM 80.6 °F 81.9 °F 63.3 °F 55% 30.05 in 10.0 mi SSE 3.5 mph - N/A   Clear
5:35 PM 79.2 °F - 64.6 °F 61% 30.05 in 10.0 mi SSW 3.5 mph - N/A   Clear
5:55 PM 77.9 °F - 65.5 °F 65% 30.05 in 10.0 mi Calm Calm - N/A   Clear
6:15 PM 77.0 °F - 67.1 °F 71% 30.05 in 10.0 mi Calm Calm - N/A   Clear
6:35 PM 76.5 °F - 66.2 °F 70% 30.05 in 10.0 mi Calm Calm - N/A   Clear
6:55 PM 75.6 °F - 67.1 °F 75% 30.06 in 10.0 mi Calm Calm - N/A   Clear
7:15 PM 74.8 °F - 67.8 °F 79% 30.05 in 10.0 mi Calm Calm - N/A   Clear
7:35 PM 73.4 °F - 68.2 °F 84% 30.06 in 10.0 mi Calm Calm - N/A   Clear
7:55 PM 72.1 °F - 67.6 °F 86% 30.06 in 10.0 mi Calm Calm - N/A   Clear
8:15 PM 71.1 °F - 67.3 °F 88% 30.06 in 10.0 mi Calm Calm - N/A   Clear
8:35 PM 71.1 °F - 66.4 °F 85% 30.07 in 10.0 mi Calm Calm - N/A   Clear
8:55 PM 70.9 °F - 66.2 °F 85% 30.07 in 10.0 mi Calm Calm - N/A   Clear
9:15 PM 70.7 °F - 65.8 °F 85% 30.07 in 10.0 mi Calm Calm - N/A   Scattered Clouds
9:35 PM 70.3 °F - 65.7 °F 85% 30.06 in 10.0 mi Calm Calm - N/A   Scattered Clouds
9:55 PM 69.8 °F - 66.2 °F 88% 30.06 in 10.0 mi Calm Calm - N/A   Light Drizzle
10:15 PM 69.6 °F - 65.8 °F 88% 30.06 in 10.0 mi West 3.5 mph - N/A   Scattered Clouds
10:35 PM 69.1 °F - 65.8 °F 89% 30.06 in 10.0 mi Calm Calm - N/A   Scattered Clouds
10:55 PM 69.1 °F - 65.8 °F 89% 30.06 in 10.0 mi Calm Calm - N/A   Clear
11:15 PM 69.1 °F - 65.3 °F 88% 30.07 in 10.0 mi Calm Calm - N/A   Mostly Cloudy
11:35 PM 68.7 °F - 66.2 °F 92% 30.06 in 10.0 mi Calm Calm - N/A   Overcast
11:55 PM 68.4 °F - 66.2 °F 93% 30.06 in 10.0 mi Calm Calm - N/A   Light Drizzle